| time (UTC) | temp C | wind direction | speed KPH | gust KPH | rain 1hr cm | rain 24hr cm | rain mn cm | humidity % | barometer mb |
| 20260503021904 | 10 | 56 | 0.0 | 3.2 | 0.18 | 0.33 | 0.33 | 93 | 1011.5 |
| 20260503020909 | 10 | 56 | 0.0 | 3.2 | 0.15 | 0.33 | 0.33 | 93 | 1011.4 |
| 20260503015917 | 10 | 5 | 1.6 | 6.4 | 0.15 | 0.28 | 0.28 | 93 | 1011.5 |
| 20260503014905 | 10 | 28 | 1.6 | 6.4 | 0.10 | 0.23 | 0.23 | 93 | 1011.5 |
| 20260503013906 | 10 | 0 | 1.6 | 8.0 | 0.08 | 0.20 | 0.20 | 93 | 1011.6 |
| 20260503012908 | 10 | 346 | 1.6 | 4.8 | 0.05 | 0.18 | 0.18 | 93 | 1011.5 |
| 20260503011903 | 10 | 43 | 0.0 | 3.2 | 0.05 | 0.15 | 0.18 | 92 | 1011.6 |
| 20260503010907 | 10 | 36 | 3.2 | 6.4 | 0.05 | 0.15 | 0.15 | 92 | 1011.6 |
| 20260503005903 | 10 | 355 | 1.6 | 4.8 | 0.05 | 0.15 | 0.15 | 92 | 1011.7 |
| 20260503004903 | 10 | 324 | 0.0 | 0.0 | 0.10 | 0.15 | 0.15 | 92 | 1011.7 |
| 20260503003906 | 10 | 324 | 0.0 | 1.6 | 0.10 | 0.13 | 0.13 | 92 | 1011.7 |
| 20260503002903 | 10 | 324 | 0.0 | 1.6 | 0.10 | 0.13 | 0.13 | 92 | 1011.8 |
| 20260503001905 | 10 | 324 | 0.0 | 1.6 | 0.13 | 0.13 | 0.13 | 92 | 1011.8 |
| 20260503000906 | 10 | 324 | 0.0 | 1.6 | 0.10 | 0.10 | 0.10 | 91 | 1011.9 |
| 20260502235902 | 10 | 324 | 0.0 | 1.6 | 0.08 | 0.08 | 0.10 | 91 | 1011.9 |
| 20260502234917 | 10 | 324 | 0.0 | 1.6 | 0.05 | 0.05 | 0.05 | 90 | 1012.0 |
| 20260502233919 | 10 | 324 | 1.6 | 3.2 | 0.03 | 0.03 | 0.03 | 90 | 1012.1 |
| 20260502232903 | 10 | 300 | 0.0 | 3.2 | 0.03 | 0.03 | 0.03 | 90 | 1012.1 |
| 20260502231904 | 10 | 298 | 0.0 | 0.0 | 0.00 | 0.00 | 0.00 | 90 | 1012.1 |
| 20260502225904 | 11 | 298 | 0.0 | 0.0 | 0.00 | 0.00 | 0.00 | 90 | 1012.1 |
| 20260502224905 | 11 | 298 | 0.0 | 1.6 | 0.00 | 0.00 | 0.00 | 89 | 1012.0 |
| 20260502223905 | 11 | 298 | 0.0 | 0.0 | 0.00 | 0.00 | 0.00 | 88 | 1012.0 |
| 20260502222905 | 11 | 298 | 0.0 | 1.6 | 0.00 | 0.00 | 0.00 | 89 | 1012.0 |
| 20260502221904 | 11 | 298 | 0.0 | 1.6 | 0.00 | 0.00 | 0.00 | 88 | 1012.1 |
| 20260502220905 | 11 | 298 | 0.0 | 1.6 | 0.00 | 0.00 | 0.00 | 88 | 1012.2 |
| 20260502215904 | 11 | 298 | 0.0 | 1.6 | 0.00 | 0.00 | 0.00 | 87 | 1012.2 |
| 20260502214905 | 11 | 298 | 0.0 | 0.0 | 0.00 | 0.00 | 0.00 | 87 | 1012.2 |
| 20260502213906 | 11 | 298 | 1.6 | 3.2 | 0.00 | 0.00 | 0.00 | 87 | 1012.2 |
| 20260502211903 | 11 | 298 | 0.0 | 1.6 | 0.00 | 0.00 | 0.00 | 86 | 1012.4 |
| 20260502205903 | 11 | 298 | 0.0 | 1.6 | 0.00 | 0.00 | 0.00 | 84 | 1012.4 |
| 20260502204905 | 12 | 298 | 0.0 | 0.0 | 0.00 | 0.00 | 0.00 | 82 | 1012.5 |
| 20260502203907 | 12 | 298 | 0.0 | 3.2 | 0.00 | 0.00 | 0.00 | 82 | 1012.6 |
| 20260502202903 | 12 | 298 | 1.6 | 4.8 | 0.00 | 0.00 | 0.00 | 82 | 1012.6 |
| 20260502200906 | 12 | 221 | 0.0 | 1.6 | 0.00 | 0.00 | 0.00 | 80 | 1012.6 |
| 20260502195903 | 12 | 221 | 0.0 | 3.2 | 0.00 | 0.00 | 0.00 | 79 | 1012.7 |
| 20260502194903 | 12 | 221 | 0.0 | 3.2 | 0.00 | 0.00 | 0.00 | 80 | 1012.6 |
| 20260502193905 | 12 | 221 | 0.0 | 3.2 | 0.00 | 0.00 | 0.00 | 79 | 1012.6 |
| 20260502192904 | 12 | 221 | 0.0 | 1.6 | 0.00 | 0.00 | 0.00 | 79 | 1012.4 |
| 20260502191903 | 12 | 221 | 0.0 | 3.2 | 0.00 | 0.00 | 0.00 | 80 | 1012.4 |
| 20260502190906 | 13 | 221 | 1.6 | 6.4 | 0.00 | 0.00 | 0.00 | 79 | 1012.4 |
| 20260502185904 | 13 | 221 | 1.6 | 6.4 | 0.00 | 0.00 | 0.00 | 78 | 1012.4 |
| 20260502184905 | 13 | 210 | 3.2 | 6.4 | 0.00 | 0.00 | 0.00 | 78 | 1012.4 |
| 20260502183906 | 13 | 220 | 1.6 | 4.8 | 0.00 | 0.00 | 0.00 | 78 | 1012.3 |
| 20260502181903 | 13 | 232 | 0.0 | 4.8 | 0.00 | 0.00 | 0.00 | 75 | 1012.3 |
| 20260502180906 | 14 | 117 | 0.0 | 4.8 | 0.00 | 0.00 | 0.00 | 74 | 1012.3 |
| 20260502163908 | 14 | 126 | 4.8 | 12.9 | 0.00 | 0.00 | 0.00 | 75 | 1012.6 |
| 20260502162904 | 14 | 173 | 6.4 | 14.5 | 0.00 | 0.00 | 0.00 | 76 | 1012.6 |
| 20260502161905 | 14 | 130 | 6.4 | 14.5 | 0.00 | 0.00 | 0.00 | 76 | 1012.6 |
| 20260502160907 | 13 | 178 | 4.8 | 16.1 | 0.00 | 0.00 | 0.00 | 76 | 1012.7 |
| 20260502151906 | 14 | 152 | 6.4 | 16.1 | 0.00 | 0.00 | 0.00 | 78 | 1013.0 |
| 20260502122852 | 13 | 172 | 4.8 | 11.3 | 0.00 | 0.00 | 0.00 | 84 | 1014.5 |
| 20260502121853 | 13 | 163 | 3.2 | 11.3 | 0.00 | 0.00 | 0.00 | 82 | 1014.6 |
| 20260502115853 | 13 | 238 | 3.2 | 8.0 | 0.00 | 0.00 | 0.00 | 84 | 1014.5 |
| 20260502113855 | 13 | 217 | 3.2 | 8.0 | 0.00 | 0.00 | 0.00 | 88 | 1014.7 |
| 20260502112852 | 12 | 198 | 3.2 | 9.7 | 0.00 | 0.00 | 0.00 | 87 | 1014.8 |
| 20260502110854 | 12 | 219 | 3.2 | 0.0 | 0.00 | 0.00 | 0.00 | 89 | 1014.9 |
| 20260502110203 | 12 | 178 | 3.2 | 12.9 | 0.00 | 0.36 | 0.00 | 89 | 1015.0 |
| 20260502105202 | 12 | 128 | 4.8 | 9.7 | 0.00 | 0.36 | 0.00 | 89 | 1015.0 |
| 20260502104204 | 12 | 149 | 4.8 | 9.7 | 0.00 | 0.36 | 0.00 | 89 | 1015.0 |
| 20260502103203 | 12 | 138 | 4.8 | 12.9 | 0.00 | 0.36 | 0.00 | 89 | 1015.1 |
| 20260502102203 | 12 | 210 | 4.8 | 9.7 | 0.00 | 0.36 | 0.00 | 89 | 1015.0 |
| 20260502091202 | 12 | 188 | 4.8 | 14.5 | 0.00 | 0.36 | 0.00 | 88 | 1015.0 |
| 20260502090202 | 12 | 167 | 3.2 | 11.3 | 0.00 | 0.36 | 0.00 | 87 | 1015.0 |
| 20260502071204 | 11 | 188 | 3.2 | 8.0 | 0.00 | 0.36 | 0.00 | 93 | 1014.8 |
| 20260502070202 | 11 | 148 | 1.6 | 8.0 | 0.00 | 0.36 | 0.00 | 94 | 1014.7 |
| 20260502065205 | 11 | 181 | 0.0 | 1.6 | 0.00 | 0.36 | 0.00 | 94 | 1014.6 |
| 20260502064204 | 11 | 181 | 0.0 | 1.6 | 0.00 | 0.36 | 0.00 | 94 | 1014.6 |
| 20260502063203 | 11 | 181 | 0.0 | 3.2 | 0.00 | 0.36 | 0.00 | 94 | 1014.6 |
| 20260502062201 | 11 | 181 | 0.0 | 1.6 | 0.00 | 0.36 | 0.00 | 94 | 1014.6 |
| 20260502061201 | 11 | 181 | 0.0 | 3.2 | 0.00 | 0.36 | 0.00 | 95 | 1014.6 |
| 20260502060157 | 10 | 181 | 0.0 | 3.2 | 0.00 | 0.36 | 0.00 | 95 | 1014.6 |
| 20260502055158 | 10 | 181 | 0.0 | 1.6 | 0.00 | 0.36 | 0.00 | 94 | 1014.6 |
| 20260502054158 | 10 | 181 | 0.0 | 1.6 | 0.00 | 0.36 | 0.00 | 94 | 1014.7 |
| 20260502053157 | 10 | 181 | 0.0 | 1.6 | 0.00 | 0.36 | 0.00 | 94 | 1014.6 |
| 20260502052158 | 10 | 181 | 0.0 | 3.2 | 0.00 | 0.36 | 0.00 | 94 | 1014.6 |
| 20260502045156 | 10 | 181 | 0.0 | 1.6 | 0.00 | 0.36 | 0.00 | 94 | 1014.6 |
| 20260502044155 | 10 | 181 | 0.0 | 1.6 | 0.00 | 0.36 | 0.00 | 94 | 1014.5 |
| 20260502043155 | 10 | 181 | 0.0 | 1.6 | 0.00 | 0.36 | 0.00 | 93 | 1014.6 |
| 20260502042155 | 10 | 181 | 0.0 | 0.0 | 0.00 | 0.36 | 0.00 | 93 | 1014.7 |
| 20260502041155 | 10 | 181 | 0.0 | 3.2 | 0.00 | 0.36 | 0.00 | 93 | 1014.6 |
| 20260502040155 | 10 | 187 | 0.0 | 1.6 | 0.00 | 0.36 | 0.00 | 93 | 1014.7 |
| 20260502035155 | 10 | 187 | 0.0 | 1.6 | 0.00 | 0.36 | 0.00 | 93 | 1014.7 |
| 20260502034156 | 10 | 187 | 0.0 | 0.0 | 0.00 | 0.36 | 0.00 | 93 | 1014.9 |
| 20260502033154 | 10 | 187 | 0.0 | 1.6 | 0.00 | 0.36 | 0.00 | 93 | 1015.0 |
| 20260502032153 | 10 | 187 | 0.0 | 1.6 | 0.00 | 0.36 | 0.00 | 93 | 1014.9 |
| 20260502031153 | 10 | 187 | 0.0 | 1.6 | 0.00 | 0.36 | 0.00 | 93 | 1014.9 |
| 20260502030153 | 10 | 187 | 0.0 | 1.6 | 0.00 | 0.36 | 0.00 | 93 | 1015.1 |
| 20260502025153 | 10 | 187 | 0.0 | 1.6 | 0.00 | 0.36 | 0.00 | 93 | 1015.1 |
| 20260502024153 | 10 | 187 | 0.0 | 1.6 | 0.00 | 0.36 | 0.00 | 93 | 1015.1 |
| 20260502023151 | 10 | 187 | 0.0 | 1.6 | 0.00 | 0.36 | 0.00 | 92 | 1015.3 |